TimeEDT,TemperatureF,Dew PointF,Humidity,Sea Level PressureIn,VisibilityMPH,Wind Direction,Wind SpeedMPH,Gust SpeedMPH,PrecipitationIn,Events,Conditions,WindDirDegrees,DateUTC
12:15 AM,33.8,30.6,88,30.14,10.0,Calm,Calm,-,N/A,,Scattered Clouds,0,2012-10-11 04:15:00
12:36 AM,33.8,30.4,87,30.14,10.0,Calm,Calm,-,N/A,,Clear,0,2012-10-11 04:36:00
12:55 AM,32.0,28.9,88,30.14,10.0,Calm,Calm,-,N/A,,Clear,0,2012-10-11 04:55:00
1:16 AM,32.2,30.4,93,30.14,10.0,Calm,Calm,-,N/A,,Scattered Clouds,0,2012-10-11 05:16:00
1:35 AM,31.1,29.1,92,30.14,10.0,Calm,Calm,-,N/A,,Clear,0,2012-10-11 05:35:00
1:56 AM,29.3,27.5,93,30.14,10.0,Calm,Calm,-,N/A,,Clear,0,2012-10-11 05:56:00
2:15 AM,30.6,29.3,95,30.14,10.0,Calm,Calm,-,N/A,,Scattered Clouds,0,2012-10-11 06:15:00
2:35 AM,30.6,29.5,96,30.13,10.0,Calm,Calm,-,N/A,,Mostly Cloudy,0,2012-10-11 06:35:00
2:55 AM,30.9,29.8,96,30.14,10.0,Calm,Calm,-,N/A,,Scattered Clouds,0,2012-10-11 06:55:00
3:15 AM,31.5,30.2,95,30.14,10.0,Calm,Calm,-,N/A,,Scattered Clouds,0,2012-10-11 07:15:00
3:55 AM,30.9,30.0,96,30.13,10.0,Calm,Calm,-,N/A,,Scattered Clouds,0,2012-10-11 07:55:00
4:16 AM,30.6,29.7,96,30.13,10.0,Calm,Calm,-,N/A,,Clear,0,2012-10-11 08:16:00
4:35 AM,31.3,30.7,98,30.13,10.0,South,3.5,-,N/A,,Clear,170,2012-10-11 08:35:00
4:56 AM,32.7,31.8,96,30.13,10.0,South,3.5,-,N/A,,Clear,180,2012-10-11 08:56:00
5:15 AM,32.9,31.6,95,30.13,10.0,South,4.6,-,N/A,,Clear,180,2012-10-11 09:15:00
5:35 AM,33.1,31.5,94,30.13,10.0,South,4.6,-,N/A,,Clear,190,2012-10-11 09:35:00
5:55 AM,32.9,31.1,93,30.13,10.0,South,6.9,-,N/A,,Clear,190,2012-10-11 09:55:00
6:15 AM,33.6,31.8,93,30.13,10.0,SSW,3.5,-,N/A,,Clear,210,2012-10-11 10:15:00
6:36 AM,33.8,31.3,90,30.13,10.0,SSW,5.8,-,N/A,,Scattered Clouds,200,2012-10-11 10:36:00
6:55 AM,34.2,31.8,91,30.13,10.0,SSW,6.9,-,N/A,,Scattered Clouds,200,2012-10-11 10:55:00
7:16 AM,34.3,31.8,90,30.13,10.0,South,6.9,-,N/A,,Clear,190,2012-10-11 11:16:00
7:35 AM,34.5,31.8,90,30.12,10.0,South,6.9,-,N/A,,Clear,190,2012-10-11 11:35:00
7:56 AM,34.7,31.8,89,30.13,10.0,SSW,6.9,-,N/A,,Clear,200,2012-10-11 11:56:00
8:15 AM,35.4,32.0,87,30.12,10.0,SSW,8.1,-,N/A,,Clear,200,2012-10-11 12:15:00
8:35 AM,36.7,32.2,84,30.11,10.0,South,8.1,-,N/A,,Clear,190,2012-10-11 12:35:00
8:55 AM,38.3,32.7,80,30.11,10.0,SSW,9.2,-,N/A,,Clear,200,2012-10-11 12:55:00
9:16 AM,40.8,33.4,75,30.11,10.0,South,10.4,-,N/A,,Clear,190,2012-10-11 13:16:00
9:35 AM,43.5,32.5,65,30.11,10.0,SSW,11.5,18.4,N/A,,Clear,200,2012-10-11 13:35:00
9:56 AM,45.9,32.4,59,30.11,10.0,SW,12.7,18.4,N/A,,Clear,220,2012-10-11 13:56:00
10:15 AM,48.0,32.0,54,30.09,10.0,SW,16.1,25.3,N/A,,Clear,220,2012-10-11 14:15:00
10:35 AM,50.0,32.0,50,30.09,10.0,SW,16.1,28.8,N/A,,Clear,220,2012-10-11 14:35:00
10:55 AM,51.4,32.2,48,30.09,10.0,SW,17.3,28.8,N/A,,Clear,230,2012-10-11 14:55:00
11:15 AM,52.7,32.0,45,30.07,10.0,SSW,20.7,27.6,N/A,,Clear,210,2012-10-11 15:15:00
11:35 AM,54.1,32.2,43,30.08,10.0,SW,13.8,27.6,N/A,,Clear,230,2012-10-11 15:35:00
11:56 AM,55.2,31.5,40,30.06,10.0,SW,23.0,31.1,N/A,,Clear,230,2012-10-11 15:56:00
12:15 PM,56.1,32.0,40,30.06,10.0,SW,21.9,27.6,N/A,,Clear,220,2012-10-11 16:15:00
12:36 PM,57.0,32.0,39,30.06,10.0,SW,16.1,29.9,N/A,,Clear,220,2012-10-11 16:36:00
12:56 PM,58.1,32.0,37,30.04,10.0,SW,18.4,27.6,N/A,,Clear,220,2012-10-11 16:56:00
1:15 PM,58.3,31.3,36,30.03,10.0,SW,17.3,28.8,N/A,,Clear,220,2012-10-11 17:15:00
1:55 PM,60.1,31.6,34,30.02,10.0,SW,19.6,27.6,N/A,,Clear,220,2012-10-11 17:55:00
2:15 PM,60.1,31.1,33,30.01,10.0,SW,15.0,32.2,N/A,,Clear,230,2012-10-11 18:15:00
2:35 PM,61.0,31.6,33,30.01,10.0,SW,17.3,27.6,N/A,,Clear,220,2012-10-11 18:35:00
2:55 PM,61.7,31.6,32,30.01,10.0,SW,18.4,28.8,N/A,,Clear,230,2012-10-11 18:55:00
3:16 PM,61.9,31.5,32,30.01,10.0,SW,18.4,31.1,N/A,,Clear,220,2012-10-11 19:16:00
3:35 PM,62.6,31.6,31,30.01,10.0,SW,20.7,28.8,N/A,,Clear,220,2012-10-11 19:35:00
3:55 PM,61.7,31.8,33,30.00,10.0,SSW,16.1,25.3,N/A,,Clear,210,2012-10-11 19:55:00
4:15 PM,63.3,32.0,31,30.01,10.0,SW,16.1,20.7,N/A,,Clear,230,2012-10-11 20:15:00
4:35 PM,63.3,32.2,31,30.00,10.0,SW,16.1,21.9,N/A,,Clear,230,2012-10-11 20:35:00
4:55 PM,62.6,31.5,31,30.01,10.0,WSW,16.1,24.2,N/A,,Clear,240,2012-10-11 20:55:00
5:15 PM,62.6,31.8,32,30.01,10.0,WSW,16.1,19.6,N/A,,Scattered Clouds,250,2012-10-11 21:15:00
6:15 PM,61.3,32.0,33,30.01,10.0,WSW,12.7,20.7,N/A,,Overcast,240,2012-10-11 22:15:00
6:35 PM,60.6,31.8,34,30.02,10.0,West,11.5,23.0,N/A,,Overcast,260,2012-10-11 22:35:00
6:55 PM,60.1,31.6,34,30.02,10.0,West,11.5,21.9,N/A,,Mostly Cloudy,260,2012-10-11 22:55:00
7:15 PM,59.0,32.0,36,30.03,10.0,WSW,10.4,-,N/A,,Scattered Clouds,250,2012-10-11 23:15:00
7:35 PM,59.0,32.2,36,30.03,10.0,West,6.9,-,N/A,,Overcast,260,2012-10-11 23:35:00
7:55 PM,57.9,34.9,42,30.06,10.0,North,10.4,23.0,N/A,,Overcast,350,2012-10-11 23:55:00
8:15 PM,52.9,38.8,59,30.07,10.0,NNW,10.4,-,N/A,,Overcast,330,2012-10-12 00:15:00
8:35 PM,52.0,39.2,62,30.08,10.0,NNW,8.1,-,N/A,,Overcast,330,2012-10-12 00:35:00
8:55 PM,51.6,39.7,64,30.09,10.0,NNW,10.4,18.4,N/A,,Overcast,330,2012-10-12 00:55:00
9:15 PM,50.7,40.1,67,30.10,10.0,NNW,8.1,-,N/A,,Overcast,340,2012-10-12 01:15:00
9:35 PM,49.5,40.5,71,30.12,10.0,NNW,10.4,17.3,N/A,,Overcast,330,2012-10-12 01:35:00
9:55 PM,48.4,40.1,73,30.13,10.0,NNW,10.4,18.4,N/A,,Overcast,330,2012-10-12 01:55:00
10:15 PM,47.5,41.0,78,30.14,10.0,NNW,8.1,-,N/A,,Overcast,340,2012-10-12 02:15:00
10:55 PM,44.8,40.3,84,30.16,10.0,North,5.8,-,N/A,,Light Drizzle,350,2012-10-12 02:55:00
11:15 PM,44.6,40.8,87,30.17,10.0,NNW,5.8,-,N/A,Rain,Light Rain,340,2012-10-12 03:15:00
11:36 PM,44.1,40.6,88,30.18,10.0,NNW,5.8,-,N/A,Rain,Light Rain,340,2012-10-12 03:36:00
11:55 PM,43.7,39.9,87,30.19,10.0,NNW,6.9,-,0.01,Rain,Rain,340,2012-10-12 03:55:00